NATO41 LSZH-EGPH

Flight info

Callsign NATO41
Flight time N/A
Altitude 48000
Route VEBIT4N/32 VEBIT T10 TORPA DCT REKLA DCT RLP DCT ROTSI DCT KOTUN DCT AMAXA/N0178F080 DCT VESAN DCT RATUK DCT SOVAT L613 LEHOC DCT INPIP
Aircraft F35/M-SBDGRY/S

Departure

Time 2026-04-25 22:45
Airport Zürich Airport (LSZH)

Arrival

Time N/A
Airport Edinburgh Airport (EGPH)
Time Latitude Longitude Altitude Speed Heading
2026-04-25 22:43 47.46046 8.56288 1400 ft 0 kts 55°
2026-04-25 22:44 47.46050 8.56297 1399 ft 7 kts 53°
2026-04-25 22:45 47.46155 8.56347 1396 ft 26 kts 355°
2026-04-25 22:45 47.46484 8.55962 1387 ft 148 kts 317°
2026-04-25 22:45 47.47635 8.54449 2577 ft 293 kts 319°
2026-04-25 22:45 47.49451 8.52116 4662 ft 361 kts 319°
2026-04-25 22:46 47.51401 8.49612 7059 ft 370 kts 317°
2026-04-25 22:46 47.51969 8.46036 8775 ft 393 kts 265°
2026-04-25 22:46 47.51483 8.42063 9901 ft 395 kts 248°
2026-04-25 22:46 47.49851 8.38822 10845 ft 408 kts 219°
2026-04-25 22:47 47.47205 8.37141 11372 ft 416 kts 193°
2026-04-25 22:47 47.44357 8.36449 11786 ft 418 kts 189°
2026-04-25 22:47 47.41523 8.35687 12261 ft 418 kts 194°
2026-04-25 22:47 47.38760 8.34304 12797 ft 421 kts 207°
2026-04-25 22:48 47.36630 8.31468 13306 ft 425 kts 240°
2026-04-25 22:48 47.35439 8.27503 13908 ft 427 kts 251°
2026-04-25 22:48 47.34420 8.23380 14502 ft 429 kts 249°
2026-04-25 22:48 47.33218 8.19315 15135 ft 433 kts 243°
2026-04-25 22:49 47.31810 8.15364 15855 ft 439 kts 243°
2026-04-25 22:49 47.30463 8.11316 16620 ft 440 kts 246°
2026-04-25 22:49 47.29231 8.07147 17394 ft 447 kts 246°
2026-04-25 22:49 47.28062 8.02890 18203 ft 450 kts 257°
2026-04-25 22:50 47.27680 7.98272 18973 ft 457 kts 267°
2026-04-25 22:50 47.27629 7.93614 19685 ft 460 kts 270°
2026-04-25 22:50 47.27882 7.88869 20429 ft 465 kts 278°
2026-04-25 22:50 47.27935 7.88373 20498 ft 466 kts 279°
2026-04-25 22:51 47.28532 7.83567 20913 ft 470 kts 279°
2026-04-25 22:51 47.28952 7.78798 21076 ft 471 kts 276°
2026-04-25 22:51 47.29391 7.74010 21152 ft 470 kts 278°
2026-04-25 22:51 47.29866 7.69294 21252 ft 472 kts 277°
2026-04-25 22:52 47.30292 7.64511 21370 ft 471 kts 277°
2026-04-25 22:52 47.30758 7.59724 21481 ft 473 kts 277°
2026-04-25 22:52 47.31194 7.54899 21601 ft 473 kts 276°
2026-04-25 22:52 47.31483 7.51719 21682 ft 473 kts 277°
2026-04-25 22:53 47.32089 7.45283 21866 ft 475 kts 277°
2026-04-25 22:53 47.32527 7.40446 22004 ft 476 kts 276°
2026-04-25 22:53 47.33310 7.35736 22150 ft 477 kts 293°
2026-04-25 22:53 47.35071 7.31531 22499 ft 485 kts 306°
2026-04-25 22:54 47.37164 7.27635 22872 ft 487 kts 308°
2026-04-25 22:54 47.39303 7.23717 23262 ft 490 kts 303°
2026-04-25 22:54 47.40990 7.19349 23721 ft 491 kts 293°
2026-04-25 22:54 47.42295 7.14674 24147 ft 492 kts 288°
2026-04-25 22:55 47.43333 7.09855 24579 ft 493 kts 283°
2026-04-25 22:55 47.44201 7.04932 25048 ft 496 kts 281°
2026-04-25 22:55 47.44989 6.99965 25531 ft 497 kts 280°
2026-04-25 22:55 47.45737 6.94961 26023 ft 501 kts 279°
2026-04-25 22:56 47.46252 6.89853 26540 ft 501 kts 272°
2026-04-25 22:56 47.46517 6.84697 27108 ft 505 kts 273°
2026-04-25 22:56 47.46939 6.79582 27697 ft 510 kts 275°
2026-04-25 22:56 47.47330 6.74357 28321 ft 513 kts 272°
2026-04-25 22:57 47.47699 6.69032 28982 ft 518 kts 273°
2026-04-25 22:57 47.48104 6.63775 29665 ft 522 kts 273°
2026-04-25 22:57 47.48478 6.58491 30369 ft 524 kts 272°
2026-04-25 22:57 47.48859 6.53190 31002 ft 516 kts 273°
2026-04-25 22:58 47.49244 6.47919 31656 ft 513 kts 272°
2026-04-25 22:58 47.49604 6.42684 32330 ft 509 kts 272°
2026-04-25 22:58 47.49971 6.37497 33044 ft 505 kts 273°
2026-04-25 22:58 47.50381 6.32364 33788 ft 502 kts 274°
2026-04-25 22:59 47.50848 6.27261 34506 ft 499 kts 277°
2026-04-25 22:59 47.51395 6.22217 35235 ft 495 kts 272°
2026-04-25 22:59 47.51605 6.17132 35997 ft 494 kts 269°
2026-04-25 22:59 47.51708 6.12057 36774 ft 493 kts 271°
2026-04-25 23:00 47.52069 6.07020 37595 ft 491 kts 275°
2026-04-25 23:00 47.52451 6.02007 38451 ft 489 kts 272°
2026-04-25 23:00 47.52737 5.97029 39212 ft 484 kts 274°
2026-04-25 23:00 47.53102 5.92051 39937 ft 491 kts 274°
2026-04-25 23:01 47.53434 5.86805 40700 ft 527 kts 274°
2026-04-25 23:01 47.53811 5.81348 41476 ft 533 kts 275°
2026-04-25 23:01 47.54467 5.75960 42339 ft 534 kts 285°
2026-04-25 23:01 47.55674 5.70764 43253 ft 534 kts 294°
2026-04-25 23:02 47.57391 5.65889 44196 ft 534 kts 302°
2026-04-25 23:02 47.59484 5.61427 45105 ft 534 kts 308°
2026-04-25 23:02 47.62000 5.57396 45968 ft 533 kts 320°
2026-04-25 23:02 47.64935 5.54178 46840 ft 534 kts 329°
2026-04-25 23:03 47.68297 5.51600 47662 ft 538 kts 337°
2026-04-25 23:03 47.71828 5.49673 48038 ft 543 kts 342°
2026-04-25 23:03 47.75464 5.48098 48149 ft 545 kts 344°
2026-04-25 23:03 47.79124 5.46601 48189 ft 543 kts 338°
2026-04-25 23:04 47.84846 5.42673 48234 ft 541 kts 326°
2026-04-25 23:04 47.88866 5.38350 48259 ft 536 kts 310°
2026-04-25 23:04 47.91182 5.34017 48375 ft 534 kts 297°
2026-04-25 23:05 47.92730 5.28998 48374 ft 534 kts 285°
2026-04-25 23:05 47.93698 5.23655 48321 ft 533 kts 291°
2026-04-25 23:05 47.95230 5.18617 48352 ft 535 kts 303°
2026-04-25 23:05 47.97467 5.14191 48341 ft 537 kts 309°
2026-04-25 23:06 48.02262 5.05607 48232 ft 539 kts 313°
2026-04-25 23:06 48.07329 4.97334 48204 ft 539 kts 310°
2026-04-25 23:07 48.12298 4.89151 48189 ft 513 kts 310°
2026-04-25 23:07 48.17056 4.81212 48187 ft 524 kts 311°
2026-04-25 23:08 48.21934 4.73031 48177 ft 527 kts 311°
2026-04-25 23:08 48.26832 4.64821 48179 ft 528 kts 310°
2026-04-25 23:09 48.31723 4.56607 48186 ft 528 kts 310°
2026-04-25 23:09 48.36620 4.48344 48180 ft 529 kts 310°
2026-04-25 23:10 48.41496 4.40091 48181 ft 527 kts 310°
2026-04-25 23:10 48.46368 4.31822 48187 ft 526 kts 310°
2026-04-25 23:11 48.48792 4.27697 48544 ft 527 kts 310°
2026-04-25 23:11 48.51240 4.23525 49336 ft 535 kts 310°
2026-04-25 23:11 48.53684 4.19355 50146 ft 534 kts 310°
2026-04-25 23:11 48.56143 4.15150 50811 ft 537 kts 310°
2026-04-25 23:12 48.58623 4.10903 51090 ft 538 kts 310°
2026-04-25 23:12 48.61105 4.06648 51173 ft 539 kts 310°
2026-04-25 23:12 48.66030 3.98182 51214 ft 539 kts 310°
2026-04-25 23:13 48.71032 3.89688 51227 ft 541 kts 314°
2026-04-25 23:13 48.76712 3.82222 51270 ft 544 kts 326°
2026-04-25 23:14 48.82947 3.75662 51243 ft 543 kts 321°
2026-04-25 23:14 48.88054 3.70120 51230 ft 544 kts 322°
2026-04-25 23:15 48.94179 3.63333 51223 ft 544 kts 323°
2026-04-25 23:15 49.00294 3.56572 51226 ft 544 kts 323°
2026-04-25 23:16 49.06436 3.49806 51225 ft 543 kts 322°
2026-04-25 23:16 49.12554 3.43038 51227 ft 543 kts 322°
2026-04-25 23:17 49.15629 3.39599 50771 ft 547 kts 323°
2026-04-25 23:17 49.18712 3.36179 49987 ft 548 kts 322°
2026-04-25 23:17 49.21752 3.32792 49209 ft 549 kts 322°
2026-04-25 23:17 49.24845 3.29328 48420 ft 547 kts 323°
2026-04-25 23:18 49.27898 3.25925 47727 ft 540 kts 322°
2026-04-25 23:18 49.30916 3.22538 47407 ft 534 kts 322°
2026-04-25 23:18 49.33892 3.19201 47291 ft 530 kts 322°
2026-04-25 23:18 49.36867 3.15861 47241 ft 527 kts 322°
2026-04-25 23:19 49.42769 3.09213 47229 ft 526 kts 322°
2026-04-25 23:19 49.48671 3.02545 47232 ft 526 kts 322°
2026-04-25 23:20 49.54592 2.95837 47215 ft 542 kts 322°
2026-04-25 23:20 49.60713 2.88883 47235 ft 546 kts 322°
2026-04-25 23:21 49.63797 2.85366 46772 ft 551 kts 322°
2026-04-25 23:21 49.66847 2.81889 46008 ft 540 kts 322°
2026-04-25 23:21 49.69892 2.78406 45207 ft 548 kts 322°
2026-04-25 23:21 49.72978 2.74872 44364 ft 556 kts 322°
2026-04-25 23:22 49.76025 2.71288 43637 ft 555 kts 322°
2026-04-25 23:22 49.79171 2.67842 43381 ft 555 kts 324°
2026-04-25 23:23 49.88588 2.57434 43260 ft 555 kts 322°
2026-04-25 23:23 49.94872 2.50400 43265 ft 560 kts 323°
2026-04-25 23:24 50.01167 2.43341 43261 ft 560 kts 323°
2026-04-25 23:24 50.07475 2.36277 43248 ft 558 kts 323°
2026-04-25 23:25 50.13764 2.29213 43241 ft 556 kts 322°
2026-04-25 23:25 50.20054 2.22109 43250 ft 558 kts 323°
2026-04-25 23:26 50.26342 2.14982 43257 ft 559 kts 323°
2026-04-25 23:26 50.32610 2.07859 43246 ft 556 kts 323°
2026-04-25 23:27 50.38828 2.00627 43272 ft 554 kts 317°
2026-04-25 23:27 50.44604 1.92554 43285 ft 557 kts 320°
2026-04-25 23:28 50.50437 1.84548 43270 ft 558 kts 319°
2026-04-25 23:28 50.56292 1.76545 43251 ft 557 kts 318°
2026-04-25 23:29 50.62136 1.68546 43244 ft 555 kts 317°
2026-04-25 23:29 50.67964 1.60515 43254 ft 557 kts 317°
2026-04-25 23:30 50.73678 1.52588 43256 ft 557 kts 318°
2026-04-25 23:30 50.79498 1.44490 43265 ft 559 kts 317°
2026-04-25 23:31 50.85317 1.36385 43271 ft 555 kts 317°
2026-04-25 23:31 50.91078 1.28337 43275 ft 556 kts 317°
2026-04-25 23:32 50.96881 1.20193 43272 ft 557 kts 317°
2026-04-25 23:32 51.02695 1.12005 43273 ft 558 kts 317°
2026-04-25 23:33 51.08637 1.04086 43302 ft 557 kts 326°
2026-04-25 23:33 51.15098 0.97193 43308 ft 558 kts 322°
2026-04-25 23:34 51.21492 0.90115 42443 ft 558 kts 323°
2026-04-25 23:34 51.24651 0.86516 41653 ft 556 kts 324°
2026-04-25 23:34 51.27839 0.83012 40898 ft 558 kts 324°
2026-04-25 23:34 51.31006 0.79471 40155 ft 537 kts 323°
2026-04-25 23:35 51.33961 0.76147 39703 ft 515 kts 324°
2026-04-25 23:35 51.36939 0.72833 39448 ft 522 kts 324°
2026-04-25 23:35 51.39884 0.69522 39346 ft 525 kts 324°
2026-04-25 23:36 51.45869 0.62797 39288 ft 526 kts 324°
2026-04-25 23:36 51.51872 0.56021 39270 ft 528 kts 324°
2026-04-25 23:37 51.57879 0.49223 39275 ft 527 kts 323°
2026-04-25 23:37 51.63878 0.42413 39270 ft 527 kts 323°
2026-04-25 23:38 51.69865 0.35593 39287 ft 528 kts 323°
2026-04-25 23:38 51.75870 0.28728 39297 ft 528 kts 323°
2026-04-25 23:39 51.81852 0.21869 39295 ft 537 kts 323°
2026-04-25 23:39 51.88062 0.14723 39305 ft 553 kts 323°
2026-04-25 23:40 51.94316 0.07502 39307 ft 557 kts 323°
2026-04-25 23:40 52.00659 0.00176 39323 ft 569 kts 324°
2026-04-25 23:41 52.07416 -0.06405 39316 ft 567 kts 334°
2026-04-25 23:41 52.14375 -0.12477 39293 ft 567 kts 331°
2026-04-25 23:42 52.21352 -0.18568 39284 ft 568 kts 330°
2026-04-25 23:42 52.28317 -0.24680 39272 ft 566 kts 330°
2026-04-25 23:43 52.35270 -0.30830 39298 ft 570 kts 330°
2026-04-25 23:43 52.42219 -0.37023 39287 ft 567 kts 330°
2026-04-25 23:44 52.49162 -0.43220 39319 ft 593 kts 330°
2026-04-25 23:44 52.52928 -0.46580 39313 ft 628 kts 330°
2026-04-25 23:44 52.56799 -0.50048 39310 ft 638 kts 330°
2026-04-25 23:45 52.64645 -0.57099 39300 ft 644 kts 330°
2026-04-25 23:45 52.72517 -0.64205 39295 ft 647 kts 330°
2026-04-25 23:46 52.80412 -0.71360 39308 ft 645 kts 330°
2026-04-25 23:46 52.88289 -0.78529 39318 ft 648 kts 330°
2026-04-25 23:47 52.96124 -0.85689 39311 ft 646 kts 330°
2026-04-25 23:47 53.03984 -0.92899 39315 ft 647 kts 330°
2026-04-25 23:48 53.11881 -1.00171 39301 ft 646 kts 330°
2026-04-25 23:48 53.19741 -1.07439 39307 ft 647 kts 330°
2026-04-25 23:49 53.27623 -1.14758 39307 ft 647 kts 330°
2026-04-25 23:49 53.35490 -1.22094 39308 ft 648 kts 329°
2026-04-25 23:50 53.43370 -1.29474 39309 ft 647 kts 329°
2026-04-25 23:50 53.47278 -1.33162 39022 ft 642 kts 329°
2026-04-25 23:50 53.50990 -1.36653 38181 ft 575 kts 329°
2026-04-25 23:50 53.54279 -1.39769 37324 ft 528 kts 329°
2026-04-25 23:51 53.57487 -1.42814 36535 ft 532 kts 329°
2026-04-25 23:51 53.60728 -1.45882 35770 ft 535 kts 329°
2026-04-25 23:51 53.63979 -1.48975 35032 ft 536 kts 329°
2026-04-25 23:51 53.67187 -1.52030 34319 ft 537 kts 329°
2026-04-25 23:52 53.70446 -1.55168 32961 ft 540 kts 327°
2026-04-25 23:52 53.73573 -1.58610 31570 ft 536 kts 323°
2026-04-25 23:52 53.76540 -1.62400 30204 ft 535 kts 316°
2026-04-25 23:52 53.79241 -1.66779 28707 ft 539 kts 313°
2026-04-25 23:53 53.81997 -1.71160 27268 ft 545 kts 318°
2026-04-25 23:53 53.84852 -1.75416 25920 ft 550 kts 316°
2026-04-25 23:53 53.87663 -1.79858 24649 ft 556 kts 316°
2026-04-25 23:53 53.90548 -1.84257 23537 ft 560 kts 317°
2026-04-25 23:54 53.93446 -1.88761 22695 ft 565 kts 316°
2026-04-25 23:54 53.96307 -1.93210 21926 ft 568 kts 316°
2026-04-25 23:54 53.99232 -1.97710 21524 ft 569 kts 318°
2026-04-25 23:54 54.02333 -2.01970 21387 ft 571 kts 321°
2026-04-25 23:55 54.05595 -2.05859 21338 ft 573 kts 328°
2026-04-25 23:55 54.09100 -2.09132 21315 ft 575 kts 331°
2026-04-25 23:55 54.12561 -2.12523 21314 ft 573 kts 327°
2026-04-25 23:55 54.15974 -2.16051 21305 ft 574 kts 329°
2026-04-25 23:56 54.19434 -2.19449 21306 ft 574 kts 328°
2026-04-25 23:56 54.22861 -2.22962 21310 ft 574 kts 328°
2026-04-25 23:56 54.26302 -2.26419 21305 ft 574 kts 328°
2026-04-25 23:56 54.29732 -2.29890 21307 ft 574 kts 328°
2026-04-25 23:57 54.33174 -2.33398 21309 ft 574 kts 328°
2026-04-25 23:57 54.36616 -2.36885 21305 ft 574 kts 328°
2026-04-25 23:57 54.40051 -2.40392 21304 ft 574 kts 328°
2026-04-25 23:57 54.43418 -2.43828 21311 ft 574 kts 328°
2026-04-25 23:58 54.46966 -2.47261 21293 ft 575 kts 335°
2026-04-25 23:58 54.50819 -2.49139 21406 ft 579 kts 352°
2026-04-25 23:58 54.54771 -2.48976 22121 ft 581 kts
2026-04-25 23:58 54.57408 -2.47756 22695 ft 583 kts 20°
2026-04-25 23:59 54.60954 -2.44425 23568 ft 585 kts 36°
2026-04-25 23:59 54.63842 -2.39488 24374 ft 586 kts 52°
2026-04-25 23:59 54.65827 -2.33337 25148 ft 586 kts 69°
2026-04-25 23:59 54.66764 -2.26511 25943 ft 585 kts 83°
2026-04-26 00:00 54.67072 -2.19512 26712 ft 584 kts 87°
2026-04-26 00:00 54.67200 -2.12516 27489 ft 581 kts 89°
2026-04-26 00:00 54.67244 -2.07902 28020 ft 580 kts 89°
2026-04-26 00:00 54.67283 -2.00939 28840 ft 578 kts 89°
2026-04-26 00:01 54.67303 -1.94010 29679 ft 575 kts 90°
2026-04-26 00:01 54.67319 -1.84879 30762 ft 573 kts 90°
2026-04-26 00:01 54.67332 -1.78012 31515 ft 569 kts 90°
2026-04-26 00:01 54.67352 -1.71222 32288 ft 565 kts 90°
2026-04-26 00:02 54.67385 -1.64434 33089 ft 561 kts 90°
2026-04-26 00:02 54.67428 -1.57723 33910 ft 558 kts 90°
2026-04-26 00:02 54.67464 -1.53191 34431 ft 578 kts 90°
2026-04-26 00:02 54.67524 -1.46124 35220 ft 602 kts 90°
2026-04-26 00:03 54.67586 -1.38484 36024 ft 656 kts 90°
2026-04-26 00:03 54.67694 -1.30376 36832 ft 709 kts 90°
2026-04-26 00:03 54.67638 -1.21519 37655 ft 736 kts 92°
2026-04-26 00:03 54.67487 -1.12595 38146 ft 745 kts 92°
2026-04-26 00:04 54.67290 -1.03626 38296 ft 749 kts 93°
2026-04-26 00:04 54.66834 -0.85656 38335 ft 748 kts 93°
2026-04-26 00:05 54.66344 -0.67795 38327 ft 748 kts 93°
2026-04-26 00:05 54.65829 -0.49823 38337 ft 749 kts 93°
2026-04-26 00:06 54.65295 -0.31900 38326 ft 747 kts 94°
2026-04-26 00:06 54.64739 -0.13955 38322 ft 745 kts 94°
2026-04-26 00:06 54.64456 -0.05009 37981 ft 750 kts 94°
2026-04-26 00:07 54.64173 0.03877 37214 ft 749 kts 94°
2026-04-26 00:07 54.63873 0.13434 36605 ft 747 kts 94°
2026-04-26 00:07 54.63595 0.22420 36408 ft 751 kts 94°
2026-04-26 00:08 54.63037 0.40397 36339 ft 750 kts 94°
2026-04-26 00:08 54.62471 0.58365 36325 ft 748 kts 94°
2026-04-26 00:09 54.61892 0.76358 36328 ft 749 kts 94°
2026-04-26 00:09 54.61297 0.94317 36340 ft 751 kts 94°
2026-04-26 00:10 54.60204 1.12164 36339 ft 750 kts 99°
2026-04-26 00:10 54.58423 1.29863 36327 ft 747 kts 105°
2026-04-26 00:10 54.56670 1.38288 36386 ft 747 kts 117°
2026-04-26 00:11 54.53961 1.45874 36401 ft 743 kts 127°
2026-04-26 00:11 54.47553 1.59864 36334 ft 744 kts 130°
2026-04-26 00:12 54.40880 1.73468 36330 ft 744 kts 131°
2026-04-26 00:12 54.37564 1.80132 36326 ft 756 kts 131°
2026-04-26 00:12 54.34038 1.87179 36325 ft 788 kts 131°
2026-04-26 00:13 54.26813 2.01539 36333 ft 799 kts 131°
2026-04-26 00:13 54.19527 2.15943 36322 ft 801 kts 131°
2026-04-26 00:14 54.12237 2.30283 36318 ft 800 kts 131°
2026-04-26 00:14 54.04899 2.44661 36327 ft 801 kts 131°
2026-04-26 00:15 53.97579 2.58944 36299 ft 802 kts 131°
2026-04-26 00:15 53.90230 2.73223 36299 ft 802 kts 131°
2026-04-26 00:16 53.82886 2.87427 36307 ft 803 kts 131°
2026-04-26 00:16 53.75514 3.01619 36283 ft 803 kts 131°
2026-04-26 00:17 53.68133 3.15761 36295 ft 804 kts 132°
2026-04-26 00:17 53.60860 3.28965 36294 ft 688 kts 142°
2026-04-26 00:17 53.57171 3.32962 36342 ft 589 kts 157°
2026-04-26 00:18 53.53512 3.34833 36387 ft 531 kts 174°
2026-04-26 00:18 53.49739 3.34730 36419 ft 554 kts 192°
2026-04-26 00:18 53.46029 3.32797 36447 ft 562 kts 206°
2026-04-26 00:19 53.38953 3.27066 36348 ft 568 kts 204°
2026-04-26 00:19 53.31600 3.22180 36329 ft 570 kts 196°
2026-04-26 00:20 53.23891 3.18974 36307 ft 569 kts 195°
2026-04-26 00:20 53.16478 3.14550 36326 ft 568 kts 205°
2026-04-26 00:20 53.12994 3.11854 36331 ft 521 kts 206°
2026-04-26 00:21 53.09900 3.09319 36303 ft 487 kts 207°
2026-04-26 00:21 53.03821 3.04183 36299 ft 474 kts 207°
2026-04-26 00:21 53.01041 3.01812 36296 ft 435 kts 208°
2026-04-26 00:22 52.98331 2.99496 36304 ft 441 kts 208°
2026-04-26 00:22 52.95622 2.96953 36331 ft 455 kts 209°
2026-04-26 00:22 52.92777 2.94499 36235 ft 465 kts 207°
2026-04-26 00:22 52.89977 2.92139 36040 ft 437 kts 208°
2026-04-26 00:23 52.87432 2.89976 35710 ft 424 kts 206°
2026-04-26 00:23 52.84788 2.87920 35450 ft 418 kts 205°
2026-04-26 00:23 52.84419 2.87633 40553 ft 418 kts 206°
2026-04-26 00:23 52.82935 2.86457 40307 ft 416 kts 207°
2026-04-26 00:24 52.80234 2.84393 37653 ft 458 kts 205°
2026-04-26 00:24 52.77157 2.82053 34907 ft 511 kts 205°
2026-04-26 00:24 52.73950 2.79589 34059 ft 502 kts 205°
2026-04-26 00:24 52.70824 2.77166 33299 ft 490 kts 205°
2026-04-26 00:25 52.67759 2.74792 32571 ft 480 kts 205°
2026-04-26 00:25 52.61939 2.69767 32730 ft 475 kts 210°
2026-04-26 00:26 52.58951 2.66801 32938 ft 476 kts 213°
2026-04-26 00:26 52.58183 2.65994 32976 ft 478 kts 213°